User: anonymous   Login
Location: Plum
(40.5000°N, 79.7500°W)
Time: 15:58:56
(UTC-04:00)
Language:

Cosmos 1825 - Orbit

View from above orbital plane
View from above orbital plane
View from above satellite
View from above satellite

Ground track
Ground track

The orbit data is extracted from the following two-line orbital elements,

1 17566U 87024A   18173.85804793 +.00000648 +00000-0 +29181-4 0  9993
2 17566 082.5057 282.4932 0004183 027.1865 332.9588 15.19287306709825
Epoch (UTC): 22 June 2018 20:35:35
Eccentricity: 0.0004183
inclination: 82.5057°
perigee height: 505 km
apogee height: 511 km
right ascension of ascending node: 282.4932°
argument of perigee: 27.1865°
revolutions per day: 15.19287306
mean anomaly at epoch: 332.9588°
orbit number at epoch: 70982

The dashed part of the orbit path shows where the satellite is in the earth's shadow,  

DLR